QPF
0.01 0.07 0.17 0.30 0.09 0.06 0.02 0.00 0.00 0.00 0.00 0.00 0.00 0.00 0.00 0.01 0.06 0.03 0.01 0.00 0.00 0.00 0.00 0.00 0.00 0.00 0.00 0.00 0.00 0.00 0.00 0.00 0.00 0.00 0.00 0.01 0.00 0.00 0.00 0.00 0.04 0.04 0.05 0.04 0.03 0.02 0.01 0.00 0.00
0.05 0.21 0.12 0.06 0.02 0.04 0.00 0.00 0.00 0.00 0.00 0.00 0.00 0.00 0.00 0.00 0.00 0.00 0.00 0.00 0.00 0.00 0.00 0.00 0.00 0.00 0.00 0.00 0.00 0.00 0.00 0.00 0.00 0.00 0.00 0.00 0.00 0.01 0.00 0.04 0.07 0.04 0.03 0.02 0.01 0.00 0.00 0.00 0.00
0.10 0.11 0.03 0.00 0.00 0.03 0.00 0.00 0.00 0.00 0.00 0.00 0.00 0.00 0.00 0.00 0.00 0.00 0.01 0.01 0.00 0.00 0.00 0.00 0.00 0.00 0.00 0.00 0.00 0.00 0.00 0.00 0.00 0.00 0.00 0.00 0.00 0.01 0.01 0.10 0.06 0.01 0.02 0.01 0.00 0.00 0.00 0.00 0.00
0.10 0.10 0.06 0.02 0.03 0.05 0.01 0.00 0.00 0.00 0.00 0.00 0.00 0.00 0.00 0.00 0.00 0.00 0.04 0.06 0.02 0.03 0.00 0.00 0.01 0.00 0.00 0.00 0.00 0.00 0.00 0.00 0.00 0.00 0.00 0.00 0.00 0.02 0.09 0.12 0.02 0.02 0.00 0.01 0.00 0.00 0.00 0.00 0.00
0.03 0.08 0.04 0.01 0.03 0.03 0.00 0.00 0.00 0.00 0.00 0.00 0.00 0.00 0.00 0.00 0.00 0.01 0.04 0.08 0.02 0.03 0.00 0.03 0.04 0.08 0.00 0.00 0.00 0.00 0.00 0.00 0.00 0.00 0.00 0.01 0.02 0.04 0.09 0.08 0.02 0.00 0.00 0.00 0.00 0.00 0.00 0.00 0.00
0.06 0.04 0.06 0.05 0.03 0.01 0.01 0.00 0.00 0.00 0.00 0.00 0.00 0.00 0.00 0.00 0.00 0.00 0.00 0.00 0.00 0.00 0.01 0.06 0.07 0.09 0.00 0.00 0.00 0.00 0.00 0.00 0.00 0.00 0.00 0.02 0.03 0.09 0.06 0.02 0.01 0.00 0.00 0.00 0.00 0.00 0.00 0.00 0.00
0.01 0.02 0.12 0.11 0.01 0.01 0.01 0.00 0.00 0.00 0.00 0.00 0.00 0.00 0.00 0.00 0.00 0.00 0.00 0.02 0.01 0.00 0.00 0.00 0.01 0.00 0.00 0.00 0.02 0.06 0.00 0.00 0.00 0.00 0.00 0.00 0.00 0.04 0.02 0.00 0.00 0.00 0.00 0.00 0.00 0.00 0.00 0.00 0.00
0.00 0.03 0.15 0.11 0.00 0.00 0.01 0.00 0.00 0.00 0.00 0.00 0.00 0.00 0.00 0.00 0.00 0.00 0.00 0.01 0.01 0.00 0.00 0.00 0.00 0.00 0.00 0.00 0.00 0.09 0.03 0.00 0.00 0.00 0.00 0.00 0.00 0.02 0.01 0.00 0.00 0.00 0.00 0.00 0.00 0.00 0.00 0.00 0.00
0.02 0.04 0.13 0.03 0.00 0.00 0.01 0.00 0.00 0.00 0.00 0.00 0.00 0.00 0.00 0.00 0.00 0.00 0.00 0.00 0.00 0.00 0.00 0.00 0.00 0.00 0.01 0.00 0.01 0.05 0.02 0.00 0.00 0.00 0.00 0.01 0.00 0.00 0.00 0.00 0.00 0.00 0.00 0.00 0.00 0.00 0.00 0.00 0.00
0.03 0.03 0.13 0.01 0.01 0.00 0.00 0.00 0.00 0.00 0.00 0.00 0.00 0.00 0.00 0.00 0.00 0.00 0.00 0.00 0.00 0.01 0.00 0.00 0.00 0.00 0.00 0.00 0.00 0.00 0.00 0.00 0.00 0.00 0.01 0.00 0.00 0.00 0.00 0.00 0.00 0.00 0.00 0.00 0.00 0.00 0.00 0.00 0.00
0.00 0.01 0.02 0.02 0.01 0.00 0.01 0.00 0.00 0.00 0.00 0.00 0.00 0.00 0.00 0.00 0.00 0.00 0.00 0.00 0.00 0.00 0.00 0.00 0.00 0.00 0.00 0.00 0.00 0.00 0.00 0.00 0.00 0.00 0.00 0.00 0.00 0.00 0.00 0.00 0.00 0.00 0.00 0.00 0.00 0.00 0.00 0.00 0.00
0.00 0.01 0.01 0.03 0.00 0.01 0.04 0.01 0.01 0.00 0.00 0.00 0.00 0.00 0.00 0.00 0.00 0.00 0.00 0.00 0.00 0.00 0.00 0.00 0.00 0.00 0.00 0.00 0.00 0.00 0.00 0.00 0.00 0.00 0.00 0.00 0.00 0.00 0.00 0.00 0.00 0.00 0.00 0.00 0.00 0.00 0.00 0.00 0.00
0.00 0.02 0.01 0.01 0.01 0.01 0.00 0.02 0.00 0.00 0.00 0.00 0.00 0.00 0.00 0.00 0.00 0.00 0.00 0.00 0.00 0.00 0.00 0.00 0.00 0.00 0.00 0.00 0.00 0.00 0.00 0.00 0.00 0.00 0.00 0.00 0.00 0.00 0.01 0.01 0.00 0.00 0.00 0.01 0.00 0.00 0.00 0.00 0.00
0.00 0.06 0.05 0.03 0.02 0.02 0.00 0.01 0.00 0.02 0.00 0.00 0.00 0.00 0.00 0.00 0.00 0.00 0.00 0.00 0.00 0.00 0.00 0.00 0.00 0.00 0.00 0.00 0.00 0.00 0.00 0.00 0.00 0.00 0.00 0.00 0.00 0.00 0.02 0.01 0.00 0.00 0.01 0.02 0.01 0.00 0.00 0.00 0.00
0.00 0.02 0.06 0.07 0.11 0.02 0.02 0.02 0.03 0.01 0.00 0.00 0.00 0.00 0.00 0.00 0.00 0.00 0.00 0.00 0.00 0.00 0.00 0.00 0.00 0.00 0.00 0.00 0.00 0.00 0.00 0.00 0.00 0.00 0.00 0.00 0.00 0.00 0.02 0.01 0.01 0.05 0.04 0.01 0.01 0.00 0.00 0.00 0.00
0.00 0.01 0.03 0.05 0.05 0.04 0.03 0.03 0.05 0.03 0.01 0.00 0.00 0.00 0.00 0.00 0.00 0.00 0.00 0.00 0.00 0.00 0.00 0.00 0.00 0.00 0.00 0.00 0.00 0.00 0.00 0.00 0.00 0.00 0.00 0.00 0.02 0.01 0.08 0.05 0.04 0.05 0.03 0.00 0.01 0.01 0.01 0.00 0.00
0.00 0.04 0.09 0.02 0.03 0.04 0.02 0.02 0.00 0.00 0.00 0.00 0.00 0.00 0.00 0.00 0.00 0.00 0.00 0.00 0.00 0.00 0.00 0.00 0.00 0.00 0.00 0.00 0.00 0.00 0.00 0.00 0.00 0.00 0.00 0.00 0.00 0.00 0.04 0.07 0.00 0.01 0.07 0.01 0.00 0.01 0.01 0.00 0.00
0.00 0.01 0.04 0.03 0.01 0.03 0.01 0.04 0.02 0.00 0.00 0.00 0.00 0.00 0.00 0.00 0.00 0.00 0.00 0.00 0.00 0.00 0.00 0.00 0.00 0.00 0.00 0.00 0.00 0.01 0.00 0.00 0.00 0.00 0.00 0.00 0.00 0.00 0.01 0.05 0.00 0.00 0.02 0.04 0.00 0.00 0.00 0.00 0.01
0.00 0.00 0.03 0.02 0.00 0.00 0.00 0.00 0.00 0.00 0.00 0.00 0.00 0.00 0.00 0.00 0.00 0.00 0.00 0.00 0.00 0.00 0.00 0.00 0.00 0.00 0.00 0.00 0.00 0.01 0.00 0.00 0.00 0.00 0.00 0.00 0.00 0.00 0.00 0.01 0.01 0.00 0.00 0.00 0.00 0.00 0.00 0.00 0.00
0.00 0.00 0.00 0.00 0.00 0.00 0.00 0.00 0.00 0.00 0.01 0.01 0.00 0.00 0.00 0.00 0.00 0.00 0.00 0.00 0.00 0.00 0.00 0.00 0.00 0.00 0.00 0.00 0.00 0.00 0.00 0.00 0.00 0.00 0.00 0.00 0.00 0.00 0.00 0.00 0.00 0.00 0.00 0.00 0.00 0.00 0.00 0.00 0.00
0.00 0.00 0.00 0.00 0.00 0.00 0.00 0.00 0.00 0.04 0.04 0.03 0.00 0.00 0.00 0.00 0.00 0.00 0.00 0.00 0.00 0.00 0.00 0.00 0.00 0.00 0.00 0.00 0.00 0.00 0.00 0.00 0.00 0.01 0.00 0.00 0.00 0.00 0.00 0.00 0.00 0.00 0.00 0.00 0.00 0.00 0.00 0.00 0.00
0.00 0.00 0.00 0.00 0.00 0.00 0.00 0.00 0.00 0.00 0.01 0.01 0.00 0.00 0.00 0.00 0.00 0.00 0.00 0.00 0.00 0.00 0.00 0.00 0.00 0.00 0.00 0.00 0.00 0.00 0.00 0.00 0.00 0.00 0.01 0.00 0.00 0.00 0.00 0.00 0.00 0.00 0.00 0.00 0.00 0.00 0.00 0.00 0.00
0.00 0.00 0.00 0.00 0.00 0.00 0.00 0.00 0.00 0.00 0.00 0.00 0.00 0.00 0.00 0.00 0.00 0.00 0.00 0.00 0.00 0.00 0.00 0.00 0.00 0.00 0.00 0.00 0.00 0.00 0.00 0.00 0.00 0.00 0.00 0.00 0.00 0.00 0.00 0.00 0.00 0.00 0.00 0.00 0.00 0.00 0.00 0.00 0.00
0.00 0.00 0.00 0.00 0.00 0.00 0.00 0.00 0.00 0.00 0.00 0.00 0.00 0.00 0.01 0.00 0.00 0.00 0.00 0.00 0.01 0.00 0.00 0.00 0.00 0.00 0.00 0.00 0.00 0.00 0.00 0.00 0.01 0.02 0.00 0.02 0.02 0.00 0.00 0.00 0.00 0.00 0.00 0.00 0.00 0.00 0.00 0.00 0.00
0.00 0.00 0.00 0.00 0.00 0.00 0.00 0.00 0.00 0.00 0.01 0.00 0.00 0.00 0.00 0.00 0.00 0.00 0.00 0.00 0.02 0.00 0.00 0.00 0.00 0.00 0.00 0.00 0.00 0.00 0.00 0.00 0.01 0.02 0.00 0.01 0.01 0.03 0.00 0.00 0.01 0.00 0.00 0.00 0.00 0.00 0.00 0.00 0.00
0.00 0.00 0.00 0.00 0.00 0.00 0.00 0.00 0.00 0.00 0.00 0.00 0.00 0.00 0.00 0.00 0.01 0.01 0.03 0.01 0.00 0.00 0.00 0.00 0.00 0.00 0.00 0.00 0.00 0.00 0.00 0.01 0.02 0.01 0.00 0.04 0.01 0.01 0.03 0.00 0.00 0.01 0.00 0.01 0.01 0.00 0.00 0.00 0.00
0.00 0.00 0.00 0.00 0.00 0.00 0.00 0.00 0.01 0.00 0.00 0.00 0.00 0.01 0.01 0.00 0.01 0.06 0.05 0.02 0.00 0.00 0.00 0.00 0.00 0.00 0.00 0.00 0.00 0.00 0.00 0.00 0.00 0.00 0.01 0.00 0.00 0.01 0.01 0.00 0.00 0.00 0.00 0.00 0.01 0.03 0.01 0.02 0.00
0.00 0.00 0.00 0.00 0.00 0.00 0.00 0.00 0.00 0.01 0.01 0.01 0.00 0.01 0.03 0.02 0.03 0.05 0.04 0.01 0.01 0.00 0.00 0.00 0.00 0.00 0.00 0.00 0.00 0.00 0.00 0.00 0.00 0.01 0.00 0.00 0.00 0.00 0.00 0.00 0.00 0.00 0.00 0.00 0.00 0.00 0.00 0.01 0.00
0.00 0.00 0.00 0.00 0.00 0.00 0.00 0.00 0.00 0.00 0.00 0.00 0.00 0.04 0.03 0.04 0.01 0.06 0.05 0.02 0.00 0.00 0.00 0.00 0.00 0.00 0.00 0.00 0.00 0.00 0.00 0.00 0.00 0.00 0.00 0.00 0.00 0.00 0.00 0.00 0.01 0.00 0.01 0.01 0.00 0.00 0.00 0.00 0.00
0.00 0.00 0.00 0.00 0.00 0.00 0.00 0.00 0.00 0.00 0.00 0.00 0.00 0.01 0.04 0.04 0.06 0.05 0.02 0.01 0.00 0.00 0.00 0.00 0.00 0.00 0.00 0.00 0.00 0.00 0.00 0.00 0.00 0.00 0.00 0.00 0.00 0.01 0.01 0.02 0.02 0.01 0.01 0.01 0.00 0.00 0.00 0.00 0.00
MSLP
1009.58 1010.59 1010.89 1011.29 1012.58 1011.72 1009.14 1007.22 1005.91 1005.25 1005.73 1005.93 1006.28 1007.29 1008.79 1009.28 1009.99 1011.83 1011.91 1012.93 1013.96 1014.51 1014.66 1014.77 1014.78 1014.82 1014.87 1014.97 1015.16 1015.23 1015.41 1015.68 1015.95 1016.15 1016.24 1016.54 1016.60 1016.71 1016.83 1017.02 1017.18 1017.32 1017.48 1017.42 1017.55 1017.59 1017.51 1017.51 1017.49
1009.56 1010.59 1011.17 1012.65 1013.13 1012.00 1008.66 1006.77 1006.07 1005.36 1005.75 1006.18 1006.99 1008.08 1008.76 1010.40 1010.63 1011.61 1012.54 1013.10 1013.61 1014.33 1014.72 1014.85 1014.93 1014.96 1014.99 1015.06 1015.26 1015.38 1015.47 1015.79 1016.10 1016.26 1016.26 1016.48 1016.64 1016.88 1017.02 1017.30 1017.40 1017.47 1017.51 1017.52 1017.59 1017.60 1017.56 1017.56 1017.69
1010.58 1010.82 1012.12 1013.02 1013.51 1011.78 1009.05 1006.64 1005.90 1005.41 1005.40 1006.26 1007.18 1007.86 1009.02 1010.64 1011.41 1011.88 1012.35 1013.09 1013.63 1014.33 1014.75 1014.87 1014.99 1015.08 1015.14 1015.18 1015.35 1015.54 1015.67 1015.94 1016.19 1016.29 1016.35 1016.57 1016.80 1017.06 1017.27 1017.41 1017.58 1017.64 1017.68 1017.71 1017.80 1017.83 1017.80 1017.72 1017.77
1010.54 1012.22 1013.86 1013.98 1012.74 1011.14 1009.56 1006.70 1005.81 1005.72 1006.26 1006.89 1007.22 1008.74 1009.86 1010.53 1011.32 1011.92 1012.71 1013.05 1013.73 1014.43 1014.70 1014.90 1015.07 1015.22 1015.35 1015.45 1015.55 1015.75 1015.87 1016.15 1016.29 1016.34 1016.51 1016.69 1016.95 1017.27 1017.54 1017.60 1017.63 1017.77 1017.86 1017.92 1017.99 1018.03 1017.94 1017.86 1017.73
1009.83 1012.77 1013.95 1013.72 1012.97 1010.51 1009.20 1007.04 1005.92 1006.36 1007.02 1007.82 1008.35 1010.49 1010.89 1011.27 1011.66 1012.21 1012.90 1013.36 1013.81 1014.57 1014.70 1014.97 1015.23 1015.44 1015.59 1015.69 1015.83 1015.94 1016.09 1016.15 1016.30 1016.37 1016.51 1016.82 1017.02 1017.45 1017.58 1017.74 1017.82 1017.99 1018.06 1018.19 1018.22 1018.18 1018.14 1017.89 1017.75
1010.22 1011.39 1012.42 1013.02 1012.48 1010.40 1008.96 1006.64 1005.93 1006.35 1007.29 1008.38 1009.31 1010.45 1011.53 1011.71 1011.99 1012.54 1012.86 1013.42 1013.72 1014.43 1014.90 1015.21 1015.48 1015.62 1015.82 1015.97 1016.02 1016.07 1016.16 1016.20 1016.37 1016.33 1016.57 1017.00 1017.22 1017.47 1017.56 1017.80 1018.03 1018.13 1018.27 1018.34 1018.38 1018.30 1018.20 1018.00 1017.74
1009.25 1010.78 1011.75 1012.11 1011.74 1011.14 1008.66 1006.76 1005.84 1005.99 1006.86 1007.93 1009.12 1010.58 1012.03 1012.10 1012.30 1012.74 1013.16 1013.62 1013.92 1014.35 1015.04 1015.53 1015.77 1015.83 1016.00 1016.09 1016.18 1016.15 1016.24 1016.40 1016.52 1016.53 1016.82 1017.14 1017.35 1017.58 1017.83 1017.95 1018.17 1018.30 1018.42 1018.40 1018.40 1018.27 1018.21 1018.05 1018.00
1008.19 1010.65 1011.17 1011.46 1011.11 1010.22 1007.50 1006.17 1005.42 1005.68 1006.52 1007.49 1008.25 1010.24 1011.90 1012.34 1012.37 1012.72 1013.29 1013.98 1014.33 1014.85 1015.20 1015.56 1015.93 1016.14 1016.29 1016.25 1016.20 1016.28 1016.30 1016.57 1016.65 1016.76 1016.90 1017.16 1017.39 1017.68 1018.03 1018.31 1018.35 1018.36 1018.42 1018.38 1018.36 1018.34 1018.27 1018.26 1018.34
1009.73 1011.44 1011.00 1010.02 1010.05 1009.42 1008.01 1007.16 1005.70 1005.69 1006.63 1007.34 1007.78 1009.70 1011.17 1011.92 1012.20 1012.86 1013.74 1014.27 1014.79 1015.16 1015.51 1015.61 1015.94 1016.30 1016.46 1016.45 1016.39 1016.41 1016.49 1016.70 1016.94 1016.98 1016.92 1017.50 1017.70 1017.90 1018.09 1018.39 1018.44 1018.38 1018.38 1018.30 1018.38 1018.39 1018.26 1018.30 1018.30
1009.25 1010.46 1010.07 1008.26 1008.47 1009.06 1007.81 1007.47 1005.82 1006.06 1006.87 1008.14 1009.21 1010.35 1011.24 1011.89 1012.33 1012.79 1013.58 1014.41 1014.98 1015.34 1015.71 1015.89 1015.89 1016.10 1016.45 1016.59 1016.87 1016.81 1016.86 1017.04 1017.34 1017.48 1017.41 1017.72 1017.92 1018.10 1018.02 1018.29 1018.36 1018.34 1018.19 1018.30 1018.53 1018.43 1018.19 1018.13 1018.12
1007.83 1008.00 1008.23 1007.45 1007.68 1007.87 1007.84 1007.58 1006.14 1006.50 1007.60 1007.99 1009.06 1010.09 1011.13 1011.87 1012.51 1012.95 1013.51 1013.92 1014.65 1015.13 1015.29 1015.79 1016.09 1016.18 1016.55 1016.86 1017.09 1017.13 1017.07 1017.28 1017.51 1017.66 1017.76 1017.83 1017.96 1018.02 1018.06 1018.41 1018.54 1018.67 1018.45 1018.41 1018.27 1018.27 1018.06 1017.97 1017.83
1006.82 1007.30 1008.48 1007.74 1006.85 1007.47 1008.17 1007.25 1006.60 1006.42 1007.09 1007.82 1008.67 1009.61 1010.51 1011.45 1011.98 1012.53 1013.31 1013.84 1014.27 1014.93 1015.33 1015.72 1015.92 1016.33 1016.72 1016.95 1017.13 1017.07 1017.16 1017.22 1017.42 1017.68 1017.99 1018.05 1018.09 1018.30 1018.30 1018.62 1018.45 1018.49 1018.45 1018.42 1018.32 1017.91 1017.84 1017.66 1017.34
1006.02 1006.10 1007.31 1007.62 1006.99 1007.10 1007.57 1007.67 1006.93 1006.94 1007.02 1007.80 1008.55 1009.29 1010.11 1010.79 1011.41 1012.04 1012.64 1013.43 1014.05 1014.41 1014.97 1015.62 1015.96 1016.37 1016.65 1016.90 1017.04 1017.07 1017.20 1017.24 1017.29 1017.52 1017.77 1017.70 1018.08 1018.03 1018.21 1018.11 1018.06 1018.55 1018.43 1018.43 1018.39 1017.92 1017.55 1017.31 1017.02
1005.86 1006.67 1007.78 1007.82 1007.29 1006.92 1007.12 1008.12 1007.41 1007.79 1007.22 1007.88 1008.28 1008.94 1009.24 1010.12 1011.02 1011.73 1012.51 1013.36 1013.86 1014.36 1014.75 1015.35 1015.84 1016.16 1016.56 1016.82 1016.93 1017.04 1017.14 1017.09 1017.37 1017.62 1017.33 1017.44 1017.93 1018.05 1018.02 1018.18 1018.27 1018.27 1018.24 1017.94 1017.85 1017.86 1017.55 1016.96 1016.83
1005.67 1007.31 1008.18 1007.65 1008.66 1008.30 1008.81 1008.44 1009.25 1008.84 1008.16 1007.87 1008.01 1008.35 1008.70 1009.36 1010.10 1010.78 1011.54 1012.47 1013.23 1013.84 1014.39 1015.11 1015.53 1015.93 1016.50 1016.73 1016.66 1016.94 1016.93 1017.01 1017.34 1017.27 1017.26 1017.48 1017.53 1017.61 1017.55 1017.94 1018.01 1017.93 1018.33 1017.39 1017.64 1017.15 1017.10 1017.14 1016.74
1006.22 1008.03 1009.18 1008.77 1008.77 1008.49 1009.86 1009.59 1009.21 1008.53 1008.82 1008.42 1007.56 1007.87 1008.26 1008.98 1009.53 1010.22 1010.81 1011.80 1012.90 1013.22 1013.78 1014.78 1015.12 1015.67 1016.05 1016.23 1016.22 1016.51 1016.55 1016.95 1016.95 1016.98 1017.26 1017.10 1017.07 1017.70 1017.69 1017.57 1017.75 1018.30 1017.58 1017.50 1017.79 1018.08 1017.79 1017.29 1017.30
1005.93 1008.63 1009.21 1008.72 1008.11 1007.77 1009.38 1009.41 1008.54 1008.60 1008.51 1007.99 1007.15 1007.33 1007.88 1008.59 1008.97 1009.51 1009.93 1011.08 1012.26 1012.92 1013.52 1014.33 1014.78 1015.27 1015.58 1015.66 1015.71 1015.94 1016.03 1016.44 1016.41 1016.62 1017.07 1017.00 1016.87 1017.67 1018.05 1017.83 1017.38 1018.04 1017.56 1017.74 1018.07 1018.20 1018.16 1018.00 1017.49
1006.53 1007.67 1008.22 1008.52 1007.74 1008.12 1007.94 1008.13 1007.99 1007.23 1007.62 1006.89 1006.68 1006.92 1007.59 1008.25 1008.77 1009.10 1009.74 1010.91 1012.05 1012.57 1013.09 1013.93 1014.42 1014.85 1015.23 1015.43 1015.72 1015.93 1016.12 1016.44 1016.41 1016.22 1016.79 1016.94 1016.75 1017.32 1017.92 1017.96 1017.90 1018.13 1017.90 1017.72 1018.10 1017.83 1017.69 1017.92 1017.70
1004.59 1006.25 1006.85 1007.26 1006.10 1007.49 1006.59 1006.73 1006.91 1006.90 1007.49 1007.16 1007.07 1006.63 1007.17 1007.66 1008.19 1008.82 1009.30 1010.52 1011.47 1012.14 1012.89 1013.42 1014.03 1014.38 1015.01 1015.38 1015.93 1016.09 1016.09 1016.30 1016.50 1016.43 1016.29 1016.59 1016.52 1016.81 1017.37 1018.02 1018.21 1018.06 1017.70 1017.70 1017.59 1017.84 1017.82 1017.97 1017.82
1003.28 1005.11 1005.46 1006.61 1005.90 1007.40 1005.31 1005.81 1006.66 1006.84 1007.40 1007.13 1007.11 1007.04 1006.80 1007.19 1007.99 1008.47 1009.08 1010.07 1010.86 1011.62 1012.18 1012.94 1013.40 1013.81 1014.36 1014.85 1015.29 1015.67 1015.58 1015.90 1015.90 1016.06 1016.25 1016.44 1016.68 1016.71 1017.25 1017.29 1017.50 1017.52 1017.62 1017.66 1017.84 1017.95 1018.00 1017.68 1017.64
1002.38 1002.72 1003.58 1004.69 1005.26 1005.46 1004.64 1005.30 1006.43 1007.15 1007.01 1007.51 1006.23 1006.61 1006.43 1006.70 1007.48 1008.26 1008.75 1009.55 1010.32 1011.12 1011.57 1012.31 1012.85 1013.42 1013.91 1014.29 1014.86 1015.40 1015.60 1015.69 1016.05 1016.25 1016.36 1016.45 1016.62 1016.77 1016.84 1017.16 1017.17 1017.47 1017.55 1017.90 1017.85 1017.88 1018.00 1018.24 1017.71
1001.90 1001.65 1002.25 1003.28 1004.10 1004.39 1003.80 1005.47 1005.89 1006.21 1007.00 1006.50 1005.82 1005.81 1005.90 1006.15 1006.78 1007.67 1008.49 1009.19 1009.90 1010.36 1011.18 1011.88 1012.24 1013.01 1013.58 1013.96 1014.47 1015.06 1015.35 1015.58 1015.90 1016.07 1016.26 1016.35 1016.43 1016.57 1016.75 1017.04 1017.23 1017.29 1017.35 1017.86 1017.93 1017.90 1018.01 1018.20 1018.16
1001.35 1001.16 1001.89 1002.79 1003.46 1004.00 1003.98 1004.61 1005.40 1005.83 1006.20 1005.64 1005.17 1004.79 1004.98 1005.32 1005.94 1006.95 1007.74 1008.44 1009.20 1010.01 1010.52 1011.42 1012.01 1012.70 1013.16 1013.68 1014.15 1014.66 1015.03 1015.31 1015.47 1015.85 1016.14 1016.19 1016.27 1016.26 1016.27 1016.62 1017.05 1017.50 1017.38 1017.65 1017.78 1017.87 1017.95 1018.04 1018.28
1000.74 1001.48 1002.04 1002.70 1003.50 1004.35 1003.95 1004.39 1005.32 1004.76 1003.99 1004.24 1004.07 1003.72 1003.92 1004.58 1005.49 1006.08 1006.86 1007.76 1008.59 1009.37 1010.18 1010.86 1011.73 1012.32 1012.88 1013.36 1013.83 1014.28 1014.62 1014.98 1015.44 1015.72 1015.98 1016.02 1016.12 1016.10 1015.95 1016.20 1016.59 1016.87 1017.23 1017.58 1017.57 1017.76 1017.89 1017.98 1018.06
1000.74 1002.00 1003.24 1003.97 1004.33 1004.62 1004.07 1003.98 1004.24 1003.75 1002.83 1002.04 1001.79 1002.45 1003.05 1003.63 1004.82 1005.82 1006.65 1007.54 1008.22 1009.44 1009.86 1010.61 1011.24 1012.01 1012.59 1013.08 1013.52 1013.87 1014.15 1014.55 1015.11 1015.34 1015.61 1015.95 1016.24 1016.24 1016.25 1016.20 1016.45 1016.77 1016.83 1017.16 1017.23 1017.59 1017.77 1017.86 1017.90
1000.89 1001.88 1003.38 1004.15 1004.72 1004.73 1004.10 1003.77 1003.45 1002.81 1002.30 1002.10 1001.33 1001.36 1002.50 1003.39 1004.23 1005.24 1006.38 1006.95 1007.53 1008.55 1009.46 1010.14 1010.86 1011.46 1012.17 1012.70 1013.17 1013.49 1013.82 1014.15 1014.51 1014.83 1015.24 1015.48 1015.80 1015.91 1016.00 1016.04 1015.90 1016.15 1016.45 1016.82 1017.09 1017.32 1017.45 1017.53 1017.64
1000.47 1001.42 1002.01 1003.40 1003.88 1004.58 1004.08 1003.19 1001.98 1001.04 1001.60 1001.74 1001.99 1002.25 1002.75 1003.48 1004.25 1005.48 1006.34 1006.44 1006.96 1007.90 1008.83 1009.50 1010.34 1010.91 1011.52 1012.11 1012.62 1013.15 1013.56 1013.89 1014.10 1014.26 1014.75 1015.04 1015.18 1015.23 1015.34 1015.50 1015.58 1015.70 1016.02 1016.30 1016.82 1017.06 1017.22 1017.18 1017.19
999.92 1000.72 1001.84 1002.77 1004.12 1004.50 1003.99 1002.72 1001.48 1000.98 1001.18 1002.30 1002.46 1002.90 1003.77 1004.13 1004.42 1006.07 1007.06 1006.46 1006.52 1007.36 1008.22 1009.16 1009.85 1010.32 1010.86 1011.46 1012.06 1012.59 1013.00 1013.33 1013.61 1013.86 1014.12 1014.36 1014.60 1014.86 1014.95 1015.05 1015.28 1015.56 1015.80 1016.09 1016.42 1016.53 1016.59 1016.74 1016.84
999.78 1000.44 1001.33 1002.32 1003.21 1003.73 1003.18 1002.18 1000.18 1000.47 1000.76 1003.15 1004.54 1004.15 1004.66 1004.49 1004.62 1006.94 1007.52 1007.71 1006.59 1006.94 1007.64 1008.56 1009.56 1010.22 1010.57 1010.98 1011.49 1012.02 1012.45 1012.80 1013.10 1013.33 1013.46 1013.58 1013.79 1014.11 1014.38 1014.55 1014.87 1015.14 1015.47 1015.85 1016.06 1016.09 1016.12 1016.28 1016.31
998.71 999.53 1000.46 1001.94 1002.57 1002.27 1001.82 1000.80 999.74 999.43 1001.14 1003.19 1004.81 1005.12 1005.07 1005.44 1004.73 1007.29 1007.10 1006.78 1006.09 1006.25 1007.20 1008.27 1009.13 1009.73 1010.02 1010.38 1010.88 1011.37 1011.80 1012.11 1012.47 1012.72 1012.74 1012.91 1013.14 1013.39 1013.79 1014.25 1014.53 1014.68 1014.90 1015.10 1015.45 1015.59 1015.58 1015.82 1015.90
Thickness
5802 5793 5789 5770 5744 5740 5756 5771 5794 5787 5780 5794 5794 5780 5765 5768 5758 5733 5773 5767 5760 5757 5757 5759 5761 5763 5765 5769 5770 5773 5773 5771 5768 5769 5769 5767 5766 5766 5764 5762 5760 5758 5756 5757 5755 5754 5754 5754 5754
5802 5792 5776 5754 5730 5722 5750 5787 5779 5791 5791 5796 5790 5779 5766 5749 5767 5763 5762 5764 5761 5757 5755 5757 5760 5762 5765 5768 5770 5771 5772 5770 5769 5769 5770 5767 5766 5765 5764 5761 5760 5759 5758 5758 5757 5756 5756 5755 5753
5793 5793 5763 5741 5721 5723 5747 5785 5789 5799 5802 5792 5782 5789 5774 5752 5760 5760 5767 5765 5761 5757 5754 5755 5758 5760 5763 5766 5768 5769 5770 5768 5768 5769 5769 5767 5766 5765 5763 5761 5760 5760 5759 5758 5757 5756 5757 5756 5756
5788 5770 5746 5732 5728 5747 5751 5788 5800 5794 5793 5793 5790 5768 5774 5776 5766 5769 5766 5765 5760 5757 5755 5755 5756 5758 5761 5762 5765 5766 5767 5766 5767 5769 5768 5767 5766 5765 5762 5761 5761 5760 5759 5758 5757 5757 5756 5757 5758
5795 5756 5728 5725 5732 5756 5771 5790 5800 5783 5782 5777 5780 5751 5754 5770 5774 5770 5765 5764 5759 5756 5756 5755 5755 5756 5758 5760 5762 5764 5765 5767 5767 5769 5769 5768 5767 5765 5763 5762 5761 5759 5759 5757 5757 5757 5757 5758 5760
5769 5763 5736 5730 5738 5756 5769 5799 5799 5789 5782 5774 5768 5757 5752 5771 5769 5766 5767 5763 5761 5758 5755 5754 5753 5754 5755 5758 5761 5764 5765 5766 5767 5768 5769 5766 5766 5766 5765 5762 5760 5760 5759 5757 5757 5758 5758 5760 5764
5778 5756 5743 5739 5740 5741 5765 5799 5794 5792 5785 5775 5778 5751 5752 5761 5769 5767 5765 5762 5761 5757 5753 5750 5750 5752 5753 5757 5760 5763 5764 5766 5766 5767 5768 5767 5767 5766 5764 5763 5761 5760 5759 5759 5759 5761 5762 5763 5764
5788 5765 5735 5743 5741 5745 5783 5801 5809 5800 5785 5797 5791 5753 5744 5759 5768 5768 5765 5759 5757 5753 5750 5748 5748 5750 5753 5757 5760 5762 5764 5765 5767 5768 5768 5769 5768 5765 5763 5762 5762 5762 5761 5762 5763 5763 5763 5764 5764
5780 5735 5735 5758 5753 5765 5786 5784 5810 5814 5793 5792 5795 5776 5771 5772 5772 5764 5758 5755 5753 5752 5750 5749 5750 5751 5753 5755 5758 5761 5762 5764 5765 5766 5768 5766 5767 5766 5764 5762 5762 5763 5763 5764 5764 5765 5766 5767 5767
5768 5742 5749 5792 5784 5765 5781 5783 5803 5797 5789 5778 5777 5777 5774 5771 5766 5762 5755 5750 5748 5747 5747 5750 5752 5753 5753 5754 5755 5758 5760 5762 5762 5762 5762 5765 5765 5766 5767 5764 5764 5765 5766 5767 5765 5767 5769 5770 5771
5783 5770 5785 5799 5792 5786 5777 5782 5805 5789 5772 5779 5772 5774 5772 5767 5763 5759 5758 5757 5753 5751 5752 5752 5753 5754 5754 5753 5754 5756 5759 5759 5760 5761 5762 5764 5765 5767 5768 5765 5764 5764 5766 5768 5769 5771 5773 5773 5776
5785 5796 5774 5777 5806 5790 5777 5792 5791 5795 5788 5796 5789 5784 5778 5769 5766 5765 5759 5758 5757 5754 5754 5754 5753 5753 5752 5753 5754 5756 5757 5758 5761 5762 5760 5763 5765 5766 5767 5763 5766 5767 5768 5770 5770 5775 5776 5779 5781
5793 5802 5801 5798 5804 5799 5796 5785 5792 5794 5802 5800 5792 5786 5779 5777 5773 5772 5769 5764 5760 5758 5758 5756 5755 5754 5753 5753 5754 5754 5755 5758 5760 5760 5760 5763 5763 5767 5765 5766 5769 5767 5768 5770 5770 5776 5780 5783 5787
5805 5803 5795 5793 5801 5805 5796 5782 5799 5791 5803 5795 5790 5784 5785 5782 5776 5775 5770 5764 5760 5762 5760 5758 5756 5756 5754 5754 5754 5753 5754 5757 5757 5758 5765 5768 5765 5766 5769 5768 5767 5770 5772 5775 5776 5776 5780 5785 5788
5802 5784 5785 5790 5785 5787 5780 5777 5765 5783 5792 5793 5789 5788 5789 5787 5784 5780 5777 5769 5767 5763 5763 5759 5758 5756 5755 5754 5755 5753 5755 5758 5757 5761 5764 5765 5769 5773 5777 5773 5771 5775 5775 5782 5781 5784 5787 5786 5787
5786 5771 5746 5774 5784 5791 5774 5750 5770 5787 5782 5781 5793 5792 5790 5788 5787 5785 5786 5780 5770 5769 5767 5763 5763 5760 5757 5756 5757 5757 5758 5757 5761 5763 5765 5769 5772 5773 5778 5777 5778 5776 5784 5787 5784 5780 5781 5787 5787
5785 5737 5751 5768 5792 5788 5771 5750 5780 5791 5787 5783 5794 5795 5793 5786 5790 5790 5793 5785 5776 5772 5770 5766 5764 5763 5761 5761 5762 5763 5762 5762 5767 5770 5767 5769 5776 5772 5773 5776 5781 5778 5785 5785 5782 5778 5781 5783 5787
5753 5748 5760 5760 5784 5781 5781 5765 5781 5796 5790 5796 5797 5798 5793 5788 5788 5794 5793 5788 5778 5776 5773 5768 5768 5766 5765 5765 5764 5765 5765 5763 5768 5773 5771 5771 5779 5775 5774 5776 5777 5778 5782 5784 5781 5782 5787 5787 5786
5797 5766 5765 5771 5796 5774 5786 5786 5785 5800 5796 5794 5792 5798 5794 5794 5796 5798 5797 5791 5784 5780 5775 5772 5768 5768 5767 5764 5760 5763 5766 5766 5769 5774 5775 5774 5780 5780 5777 5774 5775 5780 5787 5787 5786 5783 5786 5787 5789
5803 5771 5766 5771 5793 5769 5794 5784 5785 5793 5794 5797 5791 5793 5799 5800 5795 5797 5794 5792 5789 5786 5784 5778 5775 5773 5772 5771 5769 5770 5774 5772 5773 5773 5775 5774 5773 5778 5777 5779 5782 5784 5786 5789 5785 5783 5784 5791 5791
5799 5802 5790 5778 5774 5790 5797 5781 5779 5781 5783 5777 5803 5799 5804 5798 5795 5794 5793 5793 5788 5784 5784 5781 5780 5777 5775 5774 5772 5770 5772 5774 5771 5771 5772 5773 5773 5774 5778 5779 5783 5784 5787 5784 5784 5785 5785 5781 5789
5775 5820 5814 5799 5782 5758 5807 5737 5769 5781 5774 5788 5801 5800 5802 5800 5801 5797 5793 5793 5789 5789 5788 5784 5784 5780 5777 5776 5772 5770 5768 5768 5771 5773 5774 5776 5775 5776 5776 5777 5778 5781 5784 5783 5784 5787 5785 5783 5779
5788 5817 5806 5807 5785 5780 5786 5764 5764 5780 5771 5784 5795 5809 5808 5805 5805 5796 5797 5799 5796 5795 5791 5787 5784 5780 5780 5778 5775 5772 5770 5771 5774 5774 5774 5777 5778 5779 5781 5780 5777 5777 5782 5784 5785 5785 5785 5786 5783
5818 5802 5796 5793 5783 5743 5774 5768 5747 5768 5792 5795 5805 5818 5813 5810 5805 5805 5808 5805 5802 5802 5796 5792 5785 5781 5780 5779 5777 5774 5772 5771 5770 5771 5772 5776 5779 5782 5785 5783 5782 5781 5779 5781 5784 5785 5785 5784 5785
5805 5779 5724 5724 5726 5731 5777 5773 5764 5785 5801 5818 5819 5818 5821 5818 5808 5804 5800 5796 5799 5795 5796 5792 5788 5782 5781 5779 5777 5776 5775 5774 5772 5773 5773 5773 5773 5776 5780 5783 5782 5782 5782 5779 5781 5782 5783 5783 5783
5783 5769 5722 5714 5716 5737 5774 5757 5761 5801 5808 5819 5833 5830 5824 5820 5818 5810 5805 5804 5803 5799 5795 5789 5787 5784 5782 5780 5778 5777 5776 5775 5774 5775 5773 5772 5771 5774 5778 5780 5783 5783 5782 5780 5780 5782 5783 5784 5782
5782 5759 5787 5751 5761 5744 5748 5773 5804 5813 5808 5815 5811 5816 5822 5818 5817 5807 5804 5807 5809 5803 5798 5791 5789 5787 5783 5782 5780 5776 5775 5773 5773 5776 5775 5773 5773 5775 5777 5780 5783 5783 5782 5780 5779 5780 5782 5784 5784
5790 5800 5755 5751 5724 5719 5738 5760 5766 5799 5807 5799 5803 5806 5801 5806 5811 5805 5797 5806 5809 5806 5801 5795 5793 5789 5787 5785 5781 5779 5776 5776 5775 5775 5774 5776 5776 5776 5778 5779 5781 5781 5781 5779 5778 5780 5782 5782 5782
5779 5769 5775 5765 5752 5723 5725 5743 5809 5803 5812 5785 5780 5791 5795 5804 5810 5792 5793 5790 5806 5807 5803 5798 5791 5788 5787 5786 5783 5780 5778 5777 5776 5776 5777 5777 5780 5779 5778 5778 5777 5778 5778 5777 5777 5780 5782 5781 5781
5800 5782 5777 5736 5740 5756 5751 5756 5820 5829 5812 5791 5779 5786 5789 5796 5808 5771 5784 5793 5807 5807 5800 5796 5793 5790 5791 5789 5786 5783 5781 5780 5778 5777 5779 5781 5778 5779 5778 5775 5775 5775 5775 5776 5775 5777 5781 5780 5779